period_start,C,m1,H,J0,J1,J2,J3,J4,J5,JA,JB,JC,JD,JJ,JK,JN,#
2017-12-15 00:01:20,0.02,5.93,0.00,11.02,13.77,17.28,14.83,47.87,1037.16,2075.02,1745.96,1970.01,2258.03,599.82,633.48,54.12,0000 0000 0000 0000 000000
2017-12-15 00:06:21,0.10,5.94,0.00,11.00,13.77,17.31,14.79,47.88,1037.16,2075.02,1745.16,1969.59,2257.67,599.92,633.84,54.17,0000 0000 0000 0000 000000
2017-12-15 00:11:22,0.06,5.94,0.00,11.01,13.77,17.30,14.82,48.00,1037.14,2075.03,1744.62,1969.02,2257.05,599.88,633.65,54.23,0000 0000 0000 0000 000000
2017-12-15 00:16:24,0.05,5.94,0.00,11.02,13.77,17.27,14.81,48.02,1037.14,2075.02,1744.01,1968.74,2256.69,600.15,633.90,54.28,0000 0000 0000 0000 000000
2017-12-15 00:21:25,0.08,5.95,0.00,11.04,13.77,17.29,14.76,47.91,1037.13,2075.05,1743.47,1968.06,2256.03,599.99,633.80,54.33,0000 0000 0000 0000 000000
2017-12-15 00:26:27,0.02,5.95,0.00,11.04,13.77,17.27,14.82,47.81,1037.13,2075.03,1742.94,1967.98,2255.68,599.71,633.41,54.38,0000 0000 0000 0000 000000
2017-12-15 00:31:28,0.10,5.95,0.00,11.03,13.77,17.28,14.82,47.80,1037.12,2075.03,1742.19,1967.35,2255.03,599.92,633.52,54.43,0000 0000 0000 0000 000000
2017-12-15 00:36:30,0.05,5.96,0.00,11.02,13.78,17.25,14.90,47.92,1037.12,2075.03,1741.65,1966.99,2254.74,600.24,633.93,54.48,0000 0000 0000 0000 000000
2017-12-15 00:41:31,0.07,5.96,0.00,11.03,13.79,17.27,14.97,47.98,1037.12,2075.02,1741.00,1966.48,2254.04,600.39,634.02,54.53,0000 0000 0000 0000 000000
2017-12-15 00:46:32,0.05,5.96,0.00,11.04,13.79,17.24,14.88,47.95,1037.09,2075.02,1740.42,1966.01,2253.82,600.12,633.66,54.58,0000 0000 0000 0000 000000
2017-12-15 00:51:33,0.04,5.97,0.00,11.04,13.79,17.23,14.80,47.92,1037.04,2075.06,1739.97,1965.82,2253.07,599.85,633.43,54.63,0000 0000 0000 0000 000000
2017-12-15 00:56:35,0.09,5.97,0.00,11.04,13.79,17.26,14.80,47.88,1036.84,2075.07,1739.18,1965.08,2252.85,599.90,633.30,54.68,0000 0000 0000 0000 000000
2017-12-15 01:01:36,0.04,5.97,0.00,11.04,13.79,17.26,14.87,47.95,1036.67,2075.05,1738.81,1964.86,2252.07,599.77,633.05,54.73,0000 0000 0000 0000 000000
2017-12-15 01:06:38,0.10,5.98,0.00,11.04,13.80,17.27,14.83,47.81,1036.66,2075.03,1738.01,1964.09,2251.56,599.95,633.26,54.78,0000 0000 0000 0000 000000
2017-12-15 01:11:39,0.11,5.98,0.00,11.07,13.81,17.27,14.75,47.83,1036.64,2075.01,1737.09,1963.42,2250.63,599.75,632.93,54.83,0000 0000 0000 0000 000000
2017-12-15 01:16:40,0.07,5.99,0.00,11.07,13.82,17.25,14.79,47.89,1036.64,2075.01,1736.11,1962.88,2249.97,599.87,633.05,54.88,0000 0000 0000 0000 000000
2017-12-15 01:21:42,0.09,5.99,0.00,11.09,13.82,17.29,14.87,47.82,1036.64,2075.02,1735.66,1962.11,2249.27,599.88,633.18,54.93,0000 0000 0000 0000 000000
2017-12-15 01:26:43,0.03,6.00,0.00,11.09,13.82,17.27,14.84,47.89,1036.64,2075.03,1735.03,1961.99,2248.99,600.33,633.45,54.98,0000 0000 0000 0000 000000
2017-12-15 01:31:45,0.06,6.00,0.00,11.10,13.82,17.27,14.81,47.79,1036.59,2075.02,1734.76,1961.61,2248.56,600.00,633.27,55.03,0000 0000 0000 0000 000000
2017-12-15 01:36:46,0.05,6.00,0.00,11.11,13.82,17.28,14.82,47.89,1036.53,2075.01,1734.04,1961.05,2248.02,600.08,633.17,55.08,0000 0000 0000 0000 000000
2017-12-15 01:41:48,0.00,6.00,0.00,11.12,13.82,17.28,14.80,47.92,1036.29,2075.02,1733.92,1960.99,2247.96,599.96,632.91,55.14,0000 0000 0000 0000 000000
2017-12-15 01:46:49,0.08,6.00,0.00,11.12,13.83,17.27,14.79,47.83,1036.18,2075.02,1733.18,1960.68,2247.31,599.90,632.81,55.19,0000 0000 0000 0000 000000
2017-12-15 01:51:50,0.05,6.01,0.00,11.13,13.84,17.28,14.94,47.95,1036.17,2075.02,1732.77,1960.05,2246.95,600.36,633.32,55.24,0000 0000 0000 0000 000000
2017-12-15 01:56:52,0.08,6.01,0.00,11.14,13.84,17.30,14.79,47.91,1036.15,2075.00,1731.99,1959.71,2246.19,600.01,632.75,55.29,0000 0000 0000 0000 000000
2017-12-15 02:01:53,0.08,6.02,0.00,11.15,13.84,17.32,14.84,47.88,1036.16,2075.00,1731.16,1959.02,2245.79,600.13,632.80,55.34,0000 0000 0000 0000 000000
2017-12-15 02:06:53,0.08,6.02,0.00,11.17,13.84,17.31,14.86,47.94,1036.15,2075.00,1730.63,1958.67,2245.06,600.16,632.95,55.39,0000 0000 0000 0000 000000
2017-12-15 02:11:55,0.04,6.02,0.00,11.17,13.84,17.32,14.85,48.02,1036.15,2075.00,1730.02,1958.05,2244.95,600.12,632.85,55.44,0000 0000 0000 0000 000000
2017-12-15 02:16:56,0.04,6.02,0.00,11.16,13.85,17.31,14.86,47.98,1036.15,2075.00,1729.79,1957.98,2244.28,599.89,632.55,55.49,0000 0000 0000 0000 000000
2017-12-15 02:21:57,0.07,6.03,0.00,11.19,13.87,17.32,14.77,47.98,1036.15,2075.00,1729.06,1957.50,2244.00,600.15,632.84,55.54,0000 0000 0000 0000 000000
2017-12-15 02:26:58,0.03,6.03,0.00,11.18,13.87,17.34,14.81,47.86,1036.13,2075.01,1728.91,1957.04,2243.72,599.89,632.61,55.59,0000 0000 0000 0000 000000
2017-12-15 02:31:59,0.05,6.03,0.00,11.19,13.87,17.32,14.82,48.01,1036.10,2075.00,1728.16,1956.99,2243.04,600.03,632.83,55.64,0000 0000 0000 0000 000000
2017-12-15 02:37:01,0.03,6.03,0.00,11.21,13.89,17.33,14.89,47.94,1035.93,2075.00,1727.99,1956.60,2242.98,600.32,632.81,55.69,0000 0000 0000 0000 000000
2017-12-15 02:42:02,0.07,6.04,0.00,11.21,13.89,17.35,14.81,48.02,1035.81,2075.00,1727.61,1956.04,2242.41,600.02,632.35,55.74,0000 0000 0000 0000 000000
2017-12-15 02:47:04,0.02,6.04,0.00,11.23,13.90,17.37,14.92,48.15,1035.80,2075.00,1727.03,1955.96,2242.00,600.39,632.84,55.79,0000 0000 0000 0000 000000
2017-12-15 02:52:05,0.04,6.04,0.00,11.24,13.92,17.40,14.80,48.01,1035.77,2074.98,1726.97,1955.51,2241.85,600.05,632.29,55.84,0000 0000 0000 0000 000000
2017-12-15 02:57:07,0.07,6.05,0.00,11.24,13.92,17.37,14.83,48.08,1035.70,2074.99,1726.45,1955.04,2241.14,600.01,632.23,55.89,0000 0000 0000 0000 000000
2017-12-15 03:02:08,0.01,6.05,0.00,11.25,13.94,17.36,14.79,48.07,1035.68,2074.99,1726.02,1955.00,2240.99,599.89,632.22,55.94,0000 0000 0000 0000 000000
2017-12-15 03:07:09,0.07,6.05,0.00,11.28,13.94,17.39,14.78,48.15,1035.67,2074.98,1725.81,1954.58,2240.49,599.66,632.05,55.99,0000 0000 0000 0000 000000
2017-12-15 03:12:11,0.05,6.05,0.00,11.29,13.94,17.39,14.82,48.05,1035.66,2074.98,1725.09,1954.04,2240.03,600.16,632.50,56.05,0000 0000 0000 0000 000000
2017-12-15 03:17:12,0.00,6.05,0.00,11.30,13.96,17.38,14.68,47.92,1035.66,2074.97,1724.96,1953.99,2239.93,600.03,632.35,56.10,0000 0000 0000 0000 000000
2017-12-15 03:22:14,0.10,6.06,0.00,11.32,13.97,17.39,14.66,47.83,1035.66,2074.90,1724.17,1953.39,2239.14,599.96,632.12,56.15,0000 0000 0000 0000 000000
2017-12-15 03:27:15,0.05,6.06,0.00,11.34,13.97,17.43,14.86,47.89,1035.65,2074.86,1723.56,1952.99,2238.81,600.33,632.44,56.20,0000 0000 0000 0000 000000
2017-12-15 03:32:16,0.08,6.07,0.00,11.35,13.97,17.44,14.81,47.92,1035.65,2074.86,1722.83,1952.36,2238.07,600.20,632.21,56.25,0000 0000 0000 0000 000000
2017-12-15 03:37:18,0.04,6.07,0.00,11.35,13.98,17.44,14.78,47.87,1035.64,2074.72,1722.04,1951.96,2237.57,599.62,631.66,56.30,0000 0000 0000 0000 000000
2017-12-15 03:42:19,0.08,6.07,0.00,11.36,13.99,17.45,14.67,47.86,1035.62,2074.56,1721.25,1951.25,2236.95,599.83,631.82,56.35,0000 0000 0000 0000 000000
2017-12-15 03:47:20,0.09,6.08,0.00,11.37,13.99,17.48,14.79,47.88,1035.59,2074.61,1720.61,1950.89,2236.20,600.01,631.89,56.40,0000 0000 0000 0000 000000
2017-12-15 03:52:21,0.04,6.08,0.00,11.39,13.99,17.49,14.85,47.89,1035.52,2074.52,1719.99,1950.11,2235.92,600.20,631.99,56.45,0000 0000 0000 0000 000000
2017-12-15 03:57:23,0.05,6.08,0.00,11.40,13.99,17.49,14.82,47.87,1035.37,2074.42,1719.23,1949.97,2235.16,600.03,631.80,56.50,0000 0000 0000 0000 000000
2017-12-15 04:02:24,0.04,6.08,0.00,11.42,14.00,17.48,14.76,47.93,1035.38,2074.26,1718.85,1949.31,2234.96,599.74,631.39,56.55,0000 0000 0000 0000 000000
2017-12-15 04:07:25,0.07,6.09,0.00,11.41,14.02,17.51,14.83,47.91,1035.31,2074.32,1718.11,1949.00,2234.27,600.07,631.70,56.60,0000 0000 0000 0000 000000
2017-12-15 04:12:27,0.07,6.09,0.00,11.42,14.02,17.51,14.76,47.87,1035.35,2074.24,1717.57,1948.52,2233.90,599.78,631.53,56.65,0000 0000 0000 0000 000000
2017-12-15 04:17:28,0.04,6.10,0.00,11.43,14.02,17.55,14.80,47.83,1035.38,2074.13,1716.90,1948.01,2233.10,599.94,631.63,56.70,0000 0000 0000 0000 000000
2017-12-15 04:22:29,0.10,6.10,0.00,11.44,14.02,17.55,14.67,47.77,1035.29,2074.16,1716.10,1947.49,2232.67,599.77,631.45,56.75,0000 0000 0000 0000 000000
2017-12-15 04:27:31,0.05,6.10,0.00,11.46,14.04,17.55,14.82,47.81,1035.27,2074.08,1715.51,1946.99,2232.03,600.03,631.64,56.80,0000 0000 0000 0000 000000
2017-12-15 04:32:32,0.07,6.11,0.00,11.45,14.04,17.58,14.77,47.89,1035.21,2074.08,1714.94,1946.44,2231.55,599.68,631.25,56.86,0000 0000 0000 0000 000000
2017-12-15 04:37:33,0.06,6.11,0.00,11.45,14.04,17.56,14.80,47.83,1035.17,2074.08,1714.17,1946.00,2231.01,599.90,631.48,56.91,0000 0000 0000 0000 000000
2017-12-15 04:42:35,0.09,6.11,0.00,11.48,14.04,17.59,14.68,47.79,1035.18,2074.07,1713.62,1945.53,2230.37,599.99,631.47,56.96,0000 0000 0000 0000 000000
2017-12-15 04:47:36,0.03,6.12,0.00,11.49,14.05,17.58,14.76,47.79,1035.18,2074.02,1713.00,1945.01,2229.99,599.99,631.50,57.01,0000 0000 0000 0000 000000
2017-12-15 04:52:38,0.09,6.12,0.00,11.49,14.06,17.59,14.76,47.81,1035.17,2074.05,1712.32,1944.76,2229.41,599.96,631.47,57.06,0000 0000 0000 0000 000000
2017-12-15 04:57:39,0.05,6.12,0.00,11.50,14.07,17.63,14.80,47.77,1035.18,2074.06,1711.88,1944.06,2228.92,599.95,631.44,57.11,0000 0000 0000 0000 000000
2017-12-15 05:02:41,0.07,6.13,0.00,11.51,14.07,17.60,14.67,47.71,1035.18,2074.03,1711.09,1943.92,2228.16,599.85,631.23,57.16,0000 0000 0000 0000 000000
2017-12-15 05:07:42,0.07,6.13,0.00,11.52,14.08,17.61,14.70,47.69,1035.17,2074.04,1710.71,1943.18,2227.92,599.74,631.11,57.21,0000 0000 0000 0000 000000
2017-12-15 05:12:43,0.05,6.13,0.00,11.51,14.09,17.63,14.75,47.64,1035.17,2074.01,1709.99,1942.86,2227.11,600.00,631.47,57.26,0000 0000 0000 0000 000000
2017-12-15 05:17:44,0.09,6.14,0.00,11.50,14.09,17.65,14.74,47.71,1035.17,2074.00,1709.19,1942.10,2226.86,600.12,631.57,57.31,0000 0000 0000 0000 000000
2017-12-15 05:22:45,0.03,6.14,0.00,11.51,14.10,17.64,14.81,47.72,1035.17,2074.00,1708.94,1941.98,2226.11,600.02,631.52,57.36,0000 0000 0000 0000 000000
2017-12-15 05:27:46,0.08,6.14,0.00,11.53,14.12,17.63,14.75,47.73,1035.17,2074.00,1708.21,1941.48,2225.98,599.83,631.30,57.41,0000 0000 0000 0000 000000
2017-12-15 05:32:48,0.04,6.15,0.00,11.54,14.12,17.63,14.66,47.65,1035.17,2074.01,1708.00,1941.03,2225.44,599.52,630.84,57.46,0000 0000 0000 0000 000000
2017-12-15 05:37:49,0.04,6.15,0.00,11.55,14.14,17.67,14.75,47.70,1035.17,2074.00,1707.49,1940.99,2225.02,600.01,631.39,57.51,0000 0000 0000 0000 000000
2017-12-15 05:42:50,0.06,6.15,0.00,11.55,14.14,17.69,14.70,47.70,1035.17,2074.00,1707.00,1940.46,2224.75,599.92,631.18,57.56,0000 0000 0000 0000 000000
2017-12-15 05:47:52,0.07,6.16,0.00,11.54,14.14,17.67,14.80,47.69,1035.17,2074.00,1706.42,1940.01,2224.04,600.24,631.72,57.61,0000 0000 0000 0000 000000
2017-12-15 05:52:53,0.08,6.16,0.00,11.54,14.16,17.67,14.76,47.84,1035.17,2074.00,1705.77,1939.49,2223.63,600.06,631.37,57.66,0000 0000 0000 0000 000000
2017-12-15 05:57:54,0.08,6.16,0.00,11.56,14.17,17.69,14.78,47.83,1035.17,2073.99,1704.84,1938.81,2222.77,600.00,631.32,57.71,0000 0000 0000 0000 000000
2017-12-15 06:02:55,0.21,6.17,0.00,11.56,14.17,17.70,14.76,47.83,1035.17,2073.98,1703.29,1937.63,2221.40,600.19,631.42,57.76,0000 0000 0000 0000 000000
2017-12-15 06:07:57,0.30,6.18,0.00,11.58,14.17,17.67,14.76,47.86,1035.16,2073.97,1700.77,1935.72,2219.22,599.95,631.23,57.82,0000 0000 0000 0000 000000
2017-12-15 06:12:58,0.23,6.20,0.00,11.59,14.19,17.69,14.76,47.91,1035.17,2073.98,1698.56,1934.00,2217.39,599.76,630.99,57.87,0000 0000 0000 0000 000000
2017-12-15 06:17:59,0.13,6.21,0.00,11.59,14.19,17.72,14.83,47.84,1035.16,2073.98,1697.12,1933.02,2216.11,600.35,631.52,57.92,0000 0000 0000 0000 000000
2017-12-15 06:23:00,0.14,6.21,0.00,11.57,14.19,17.71,14.77,47.93,1035.14,2073.98,1696.03,1932.13,2215.30,600.09,631.37,57.97,0000 0000 0000 0000 000000
2017-12-15 06:28:02,0.13,6.22,0.00,11.59,14.20,17.72,14.88,47.78,1035.02,2073.97,1694.82,1931.12,2214.18,600.25,631.46,58.02,0000 0000 0000 0000 000000
2017-12-15 06:33:03,0.12,6.23,0.00,11.59,14.22,17.74,14.83,47.81,1034.90,2073.96,1693.91,1930.39,2213.28,600.16,631.23,58.07,0000 0000 0000 0000 000000
2017-12-15 06:38:05,0.07,6.23,0.00,11.60,14.22,17.74,14.77,47.84,1035.03,2073.92,1693.05,1929.89,2212.68,600.09,631.29,58.12,0000 0000 0000 0000 000000
2017-12-15 06:43:06,0.11,6.24,0.00,11.62,14.22,17.74,14.81,47.79,1035.04,2073.95,1692.23,1929.11,2212.02,600.16,631.19,58.17,0000 0000 0000 0000 000000
2017-12-15 06:48:07,0.10,6.24,0.00,11.63,14.23,17.76,14.77,47.83,1035.04,2073.92,1691.52,1928.65,2211.25,599.98,631.05,58.22,0000 0000 0000 0000 000000
2017-12-15 06:53:09,0.07,6.25,0.00,11.62,14.24,17.76,14.79,47.82,1035.11,2073.86,1690.64,1928.00,2210.65,600.17,631.29,58.27,0000 0000 0000 0000 000000
2017-12-15 06:58:10,0.09,6.25,0.00,11.62,14.24,17.74,14.82,47.92,1035.12,2073.81,1689.83,1927.26,2209.94,600.06,631.26,58.32,0000 0000 0000 0000 000000
2017-12-15 07:03:11,0.09,6.26,0.00,11.61,14.26,17.76,14.83,47.90,1034.88,2073.84,1689.01,1926.74,2209.09,600.23,631.24,58.37,0000 0000 0000 0000 000000
2017-12-15 07:08:13,0.08,6.26,0.00,11.62,14.27,17.77,14.75,47.80,1034.72,2073.70,1688.12,1926.01,2208.24,599.90,630.69,58.42,0000 0000 0000 0000 000000
2017-12-15 07:13:14,0.09,6.27,0.00,11.64,14.27,17.74,14.68,47.81,1034.69,2073.39,1687.24,1925.22,2207.46,599.84,630.68,58.47,0000 0000 0000 0000 000000
2017-12-15 07:18:16,0.07,6.27,0.00,11.66,14.27,17.76,14.68,47.76,1034.68,2073.29,1686.37,1924.77,2206.83,599.76,630.43,58.52,0000 0000 0000 0000 000000
2017-12-15 07:23:17,0.08,6.27,0.00,11.67,14.29,17.76,14.77,47.81,1034.66,2073.27,1685.64,1924.03,2206.04,600.00,630.75,58.57,0000 0000 0000 0000 000000
2017-12-15 07:28:18,0.08,6.28,0.00,11.67,14.29,17.80,14.67,47.82,1034.64,2073.15,1684.92,1923.47,2205.31,599.66,630.42,58.62,0000 0000 0000 0000 000000
2017-12-15 07:33:20,0.06,6.28,0.00,11.66,14.29,17.81,14.76,47.78,1034.68,2073.09,1684.09,1922.98,2204.83,600.07,630.68,58.68,0000 0000 0000 0000 000000
2017-12-15 07:38:21,0.12,6.29,0.00,11.67,14.29,17.84,14.68,47.77,1034.68,2073.07,1683.21,1922.16,2204.03,600.04,630.77,58.73,0000 0000 0000 0000 000000
2017-12-15 07:43:22,0.10,6.29,0.00,11.68,14.30,17.80,14.75,47.88,1034.68,2073.08,1682.33,1921.71,2203.33,600.31,631.07,58.78,0000 0000 0000 0000 000000
2017-12-15 07:48:24,0.03,6.30,0.00,11.68,14.31,17.79,14.76,47.89,1034.68,2073.09,1681.91,1921.03,2202.94,599.63,630.25,58.83,0000 0000 0000 0000 000000
2017-12-15 07:53:26,0.07,6.30,0.00,11.67,14.32,17.82,14.81,47.88,1034.67,2073.04,1681.11,1920.86,2202.14,600.17,630.82,58.88,0000 0000 0000 0000 000000
2017-12-15 07:58:27,0.06,6.30,0.00,11.69,14.32,17.83,14.81,47.94,1034.68,2073.04,1680.80,1920.12,2201.97,600.20,630.97,58.93,0000 0000 0000 0000 000000
2017-12-15 08:03:28,0.05,6.31,0.00,11.69,14.32,17.84,14.81,47.97,1034.67,2073.03,1680.05,1920.00,2201.31,600.05,630.72,58.98,0000 0000 0000 0000 000000
2017-12-15 08:08:29,0.08,6.31,0.00,11.69,14.33,17.86,14.72,47.98,1034.57,2073.03,1679.55,1919.60,2200.99,599.67,630.51,59.03,0000 0000 0000 0000 000000
2017-12-15 08:13:30,0.05,6.31,0.00,11.71,14.34,17.87,14.67,48.01,1034.33,2073.02,1679.00,1919.01,2200.39,599.72,630.06,59.08,0000 0000 0000 0000 000000
2017-12-15 08:18:31,0.05,6.31,0.00,11.72,14.34,17.85,14.69,48.03,1034.39,2073.04,1678.28,1918.92,2200.00,599.90,630.37,59.13,0000 0000 0000 0000 000000
2017-12-15 08:23:33,0.06,6.32,0.00,11.72,14.35,17.85,14.79,48.08,1034.39,2073.02,1677.99,1918.16,2199.70,600.09,630.60,59.18,0000 0000 0000 0000 000000
2017-12-15 08:28:34,0.05,6.32,0.00,11.71,14.37,17.86,14.78,48.07,1034.22,2073.01,1677.52,1918.00,2199.05,599.95,630.38,59.23,0000 0000 0000 0000 000000
2017-12-15 08:33:35,0.03,6.32,0.00,11.72,14.37,17.87,14.72,48.05,1034.22,2073.01,1677.00,1917.74,2198.91,599.92,630.38,59.28,0000 0000 0000 0000 000000
2017-12-15 08:38:36,0.09,6.33,0.00,11.72,14.38,17.86,14.75,48.13,1034.20,2073.01,1676.50,1917.07,2198.21,600.09,630.42,59.33,0000 0000 0000 0000 000000
2017-12-15 08:43:38,0.01,6.33,0.00,11.73,14.39,17.86,14.83,48.17,1034.20,2073.02,1676.01,1916.98,2197.99,600.33,630.68,59.38,0000 0000 0000 0000 000000
2017-12-15 08:48:39,0.09,6.33,0.00,11.74,14.40,17.88,14.82,48.18,1034.20,2073.01,1675.64,1916.51,2197.50,600.22,630.47,59.43,0000 0000 0000 0000 000000
2017-12-15 08:53:41,0.03,6.34,0.00,11.76,14.42,17.88,14.74,48.11,1034.20,2073.01,1675.02,1916.02,2197.01,599.91,630.15,59.48,0000 0000 0000 0000 000000
2017-12-15 08:58:42,0.04,6.34,0.00,11.77,14.42,17.88,14.73,48.06,1034.19,2073.00,1674.69,1915.91,2196.67,600.30,630.58,59.53,0000 0000 0000 0000 000000
2017-12-15 09:03:43,0.08,6.34,0.00,11.76,14.44,17.90,14.78,48.13,1034.19,2073.00,1674.03,1915.26,2196.05,599.89,630.07,59.59,0000 0000 0000 0000 000000
2017-12-15 09:08:44,0.03,6.34,0.00,11.76,14.44,17.90,14.70,48.20,1034.16,2073.00,1673.67,1915.00,2195.88,599.89,630.20,59.64,0000 0000 0000 0000 000000
2017-12-15 09:13:45,0.08,6.35,0.00,11.78,14.45,17.90,14.77,48.18,1034.06,2073.00,1673.02,1914.58,2195.14,600.15,630.30,59.69,0000 0000 0000 0000 000000
2017-12-15 09:18:46,0.03,6.35,0.00,11.78,14.47,17.92,14.76,48.13,1034.09,2072.99,1672.79,1914.03,2194.99,599.93,630.11,59.74,0000 0000 0000 0000 000000
2017-12-15 09:23:48,0.05,6.35,0.00,11.78,14.47,17.94,14.74,48.15,1033.98,2072.99,1672.08,1913.98,2194.57,599.70,629.75,59.79,0000 0000 0000 0000 000000
2017-12-15 09:28:49,0.04,6.35,0.00,11.79,14.49,17.93,14.73,48.26,1033.87,2072.99,1671.96,1913.57,2194.02,600.23,630.39,59.84,0000 0000 0000 0000 000000
2017-12-15 09:33:51,0.06,6.36,0.00,11.82,14.49,17.95,14.66,48.17,1033.89,2072.99,1671.27,1913.04,2193.97,600.13,630.04,59.89,0000 0000 0000 0000 000000
2017-12-15 09:38:52,0.03,6.36,0.00,11.82,14.50,17.93,14.81,47.98,1033.80,2072.99,1671.00,1912.99,2193.35,600.02,629.90,59.94,0000 0000 0000 0000 000000
2017-12-15 09:43:53,0.03,6.36,0.00,11.82,14.51,17.95,14.75,48.02,1033.76,2072.99,1670.83,1912.74,2193.00,599.97,629.81,59.99,0000 0000 0000 0000 000000
2017-12-15 09:48:54,0.06,6.37,0.00,11.83,14.52,17.95,14.85,48.01,1033.72,2072.98,1670.12,1912.07,2192.95,600.21,630.04,60.04,0000 0000 0000 0000 000000
2017-12-15 09:53:56,0.02,6.37,0.00,11.84,14.53,17.95,14.78,48.03,1033.71,2072.98,1669.99,1912.00,2192.29,600.02,629.82,60.09,0000 0000 0000 0000 000000
2017-12-15 09:58:57,0.04,5.95,0.00,11.84,14.54,17.96,13.09,42.58,1033.71,2073.25,1796.74,1996.81,2289.21,534.97,561.69,0.00,0000 0000 0000 0000 000002
2017-12-15 10:03:59,0.08,0.00,0.00,11.86,14.56,17.95,14.72,47.62,1033.71,2076.99,3572.34,3183.84,3650.30,599.85,629.62,0.01,0000 0000 0000 0000 000000
2017-12-15 10:09:00,0.07,0.00,0.00,11.87,14.55,17.96,14.73,47.17,1033.71,2076.98,3570.16,3183.00,3649.55,600.03,629.81,0.06,0000 0000 0000 0000 000000
2017-12-15 10:14:01,0.06,0.00,0.00,11.88,14.56,18.00,14.68,47.07,1033.70,2076.99,3568.85,3182.20,3648.68,599.90,629.61,0.11,0000 0000 0000 0000 000000
2017-12-15 10:19:03,0.06,0.00,0.00,11.90,14.57,18.03,14.74,46.97,1033.71,2076.98,3567.75,3181.64,3647.89,599.93,629.56,0.16,0000 0000 0000 0000 000000
2017-12-15 10:24:04,0.05,0.00,0.00,11.92,14.57,18.08,14.71,46.76,1033.71,2076.96,3566.65,3181.00,3647.06,600.23,629.85,0.21,0000 0000 0000 0000 000000
2017-12-15 10:29:05,0.04,0.01,0.00,11.94,14.57,18.07,14.72,46.70,1033.71,2076.98,3565.66,3180.26,3646.58,600.16,629.64,0.26,0000 0000 0000 0000 000000
2017-12-15 10:34:06,0.03,0.01,0.00,11.94,14.59,18.07,14.75,46.66,1033.70,2076.99,3564.71,3179.89,3645.97,599.93,629.49,0.31,0000 0000 0000 0000 000000
2017-12-15 10:39:07,0.05,0.01,0.00,11.95,14.59,18.08,14.73,46.63,1033.69,2076.98,3563.63,3179.08,3645.11,600.03,629.55,0.36,0000 0000 0000 0000 000000
2017-12-15 10:44:08,0.05,0.01,0.00,11.97,14.60,18.08,14.74,46.52,1033.70,2076.99,3562.54,3178.44,3644.36,600.18,629.64,0.41,0000 0000 0000 0000 000000
2017-12-15 10:49:10,0.03,0.01,0.00,11.99,14.62,18.10,14.65,46.51,1033.70,2076.97,3561.48,3177.84,3643.62,599.97,629.65,0.46,0000 0000 0000 0000 000000
2017-12-15 10:54:11,0.04,0.02,0.00,11.99,14.62,18.12,14.66,46.38,1033.71,2076.96,3560.46,3177.05,3642.81,600.21,629.68,0.51,0000 0000 0000 0000 000000
2017-12-15 10:59:12,0.04,0.02,0.00,12.01,14.64,18.13,14.68,46.51,1033.71,2076.95,3559.43,3176.36,3641.99,600.05,629.35,0.57,0000 0000 0000 0000 000000
2017-12-15 11:04:14,0.04,0.02,0.00,12.03,14.64,18.15,14.64,46.39,1033.70,2076.96,3558.30,3175.84,3641.10,599.68,629.20,0.62,0000 0000 0000 0000 000000
2017-12-15 11:09:15,0.04,0.02,0.00,12.05,14.66,18.15,14.81,46.44,1033.69,2076.96,3557.55,3175.07,3640.44,600.08,629.35,0.67,0000 0000 0000 0000 000000
2017-12-15 11:14:16,0.03,0.02,0.00,12.07,14.67,18.16,14.68,46.38,1033.68,2076.91,3556.58,3174.48,3639.79,600.16,629.48,0.72,0000 0000 0000 0000 000000
2017-12-15 11:19:17,0.02,0.03,0.00,12.07,14.69,18.15,14.78,46.51,1033.69,2076.76,3555.54,3173.90,3638.98,600.21,629.48,0.77,0000 0000 0000 0000 000000
2017-12-15 11:24:19,0.04,0.03,0.00,12.09,14.70,18.15,14.68,46.32,1033.60,2076.70,3554.72,3173.08,3638.13,600.10,629.30,0.82,0000 0000 0000 0000 000000
2017-12-15 11:29:20,0.03,0.03,0.00,12.11,14.72,18.17,14.70,46.42,1033.64,2076.55,3553.87,3172.67,3637.55,600.07,629.27,0.87,0000 0000 0000 0000 000000
2017-12-15 11:34:21,0.03,0.03,0.00,12.13,14.73,18.21,14.64,46.41,1033.66,2076.46,3552.94,3172.01,3636.89,599.98,629.15,0.92,0000 0000 0000 0000 000000
2017-12-15 11:39:22,0.03,0.03,0.00,12.14,14.74,18.21,14.67,46.42,1033.60,2076.32,3552.04,3171.35,3636.08,599.71,628.72,0.97,0000 0000 0000 0000 000000
2017-12-15 11:44:24,0.02,0.03,0.00,12.16,14.76,18.20,14.68,46.40,1033.65,2076.12,3551.13,3170.83,3635.36,599.69,628.77,1.02,0000 0000 0000 0000 000000
2017-12-15 11:49:25,0.04,0.04,0.00,12.17,14.77,18.21,14.71,46.34,1033.54,2076.13,3550.12,3170.06,3634.60,600.17,628.96,1.07,0000 0000 0000 0000 000000
2017-12-15 11:54:26,0.03,0.04,0.00,12.18,14.79,18.24,14.73,46.45,1033.35,2076.13,3549.20,3169.55,3633.96,600.00,628.82,1.12,0000 0000 0000 0000 000000
2017-12-15 11:59:27,0.03,0.04,0.00,12.21,14.80,18.27,14.74,46.46,1033.26,2076.10,3548.32,3168.97,3633.13,600.10,628.77,1.17,0000 0000 0000 0000 000000
2017-12-15 12:04:29,0.04,0.04,0.00,12.23,14.82,18.27,14.64,46.28,1033.25,2076.05,3547.20,3168.13,3632.34,600.02,628.56,1.22,0000 0000 0000 0000 000000
2017-12-15 12:09:30,0.52,0.06,0.00,12.23,14.84,18.29,14.72,46.38,1033.25,2076.01,3535.84,3161.68,3625.37,599.92,628.63,1.27,0000 0000 0000 0000 000000
2017-12-15 12:14:31,0.04,0.07,0.00,12.24,14.85,18.31,14.78,46.46,1033.23,2076.02,3532.51,3159.88,3623.01,600.52,629.16,1.32,0000 0000 0000 0000 000000
2017-12-15 12:19:32,0.15,0.07,0.00,12.27,14.87,18.31,14.80,46.43,1033.23,2076.01,3529.60,3158.15,3621.19,600.46,629.00,1.37,0000 0000 0000 0000 000000
2017-12-15 12:24:34,0.06,0.08,0.00,12.29,14.89,18.33,14.72,46.32,1033.23,2076.00,3527.06,3156.81,3619.56,599.77,628.30,1.42,0000 0000 0000 0000 000000
2017-12-15 12:29:35,0.03,0.08,0.00,12.29,14.91,18.33,14.64,46.31,1033.22,2076.00,3526.12,3156.06,3618.86,599.88,628.44,1.47,0000 0000 0000 0000 000000
2017-12-15 12:34:36,0.04,0.08,0.00,12.33,14.93,18.35,14.65,46.33,1033.22,2076.00,3525.24,3155.42,3618.05,600.17,628.58,1.52,0000 0000 0000 0000 000000
2017-12-15 12:39:38,0.03,0.09,0.00,12.35,14.95,18.36,14.67,46.27,1033.22,2075.99,3524.23,3154.85,3617.23,599.93,628.29,1.57,0000 0000 0000 0000 000000
2017-12-15 12:44:39,0.04,0.09,0.00,12.38,14.98,18.38,14.71,46.36,1033.22,2075.99,3523.25,3154.06,3616.49,600.26,628.61,1.62,0000 0000 0000 0000 000000
2017-12-15 12:49:40,0.04,0.09,0.00,12.40,15.00,18.38,14.67,46.25,1033.22,2075.98,3522.40,3153.51,3615.78,600.27,628.71,1.67,0000 0000 0000 0000 000000
2017-12-15 12:54:41,0.03,0.09,0.00,12.42,15.02,18.43,14.60,46.21,1033.19,2075.98,3521.47,3152.89,3614.93,599.89,628.07,1.72,0000 0000 0000 0000 000000